This is the latest recevied weather packets stored in our database for station/object LY3FF-10. If no packets are shown the sender has not sent any weather packets the latest 1 day(s).
| Time | Temp. | Humidity | Pressure | Rain* | Wind** | Luminosity | Snow |
|---|---|---|---|---|---|---|---|
| 1777963972 | 15° C | 62% | 990.6 hPa | - | - | - | - |
| 1777960762 | 14.44° C | 65% | 990.7 hPa | - | - | - | - |
| 1777959966 | 13.89° C | 66% | 990.7 hPa | - | - | - | - |
| 1777959244 | 13.89° C | 67% | 990.7 hPa | - | - | - | - |
| 1777958487 | 13.33° C | 68% | 990.7 hPa | - | - | - | - |
| 1777957761 | 13.33° C | 69% | 990.7 hPa | - | - | - | - |
| 1777956886 | 12.78° C | 69% | 990.7 hPa | - | - | - | - |
| 1777956114 | 12.78° C | 69% | 990.5 hPa | - | - | - | - |
| 1777955287 | 12.78° C | 70% | 990.3 hPa | - | - | - | - |
| 1777954382 | 12.22° C | 69% | 990.3 hPa | - | - | - | - |
| 1777953556 | 12.78° C | 69% | 990.2 hPa | - | - | - | - |
| 1777952677 | 11.67° C | 70% | 990.3 hPa | - | - | - | - |
| 1777951797 | 11.67° C | 70% | 990.3 hPa | - | - | - | - |
| 1777950932 | 12.22° C | 71% | 990.2 hPa | - | - | - | - |
| 1777950183 | 12.22° C | 70% | 990.3 hPa | - | - | - | - |
| 1777949316 | 12.22° C | 71% | 990.3 hPa | - | - | - | - |
| 1777948496 | 11.67° C | 71% | 990.3 hPa | - | - | - | - |
| 1777947692 | 12.78° C | 70% | 990.5 hPa | - | - | - | - |
| 1777946842 | 12.22° C | 68% | 990.4 hPa | - | - | - | - |
| 1777946027 | 13.33° C | 65% | 990.6 hPa | - | - | - | - |
| 1777945152 | 12.78° C | 65% | 990.4 hPa | - | - | - | - |
| 1777944316 | 12.78° C | 65% | 990.1 hPa | - | - | - | - |
| 1777943600 | 13.33° C | 64% | 990.1 hPa | - | - | - | - |
| 1777942732 | 13.89° C | 63% | 990.1 hPa | - | - | - | - |
| 1777941836 | 13.89° C | 62% | 990.3 hPa | - | - | - | - |
* Rain since midnight (hover to see other rain measurements)
** Current wind speed in m/s (hover to see current wind gust speed)